Time,TemperatureF,DewpointF,PressureIn,WindDirection,WindDirectionDegrees,WindSpeedMPH,WindSpeedGustMPH,Humidity,HourlyPrecipIn,Conditions,Clouds,dailyrainin,SoftwareType,DateUTC
2013-03-13 00:02:00,69.0,68.0,29.50,SSW,210,2.0,5.0,98,0.00,,,0.00,,2013-03-12 22:02:00,
2013-03-13 00:12:00,69.0,68.0,29.50,SSW,210,2.0,5.0,98,0.00,,,0.00,,2013-03-12 22:12:00,
2013-03-13 00:21:00,69.0,68.0,29.50,South,180,2.0,3.0,98,0.00,,,0.00,,2013-03-12 22:21:00,
2013-03-13 00:32:00,69.0,68.0,29.51,SSW,202,2.0,5.0,98,0.00,,,0.00,,2013-03-12 22:32:00,
2013-03-13 00:42:00,69.0,68.0,29.51,SSW,202,2.0,5.0,98,0.00,,,0.00,,2013-03-12 22:42:00,
2013-03-13 00:52:00,69.0,68.0,29.50,South,190,2.0,3.0,98,0.00,,,0.00,,2013-03-12 22:52:00,
2013-03-13 01:02:00,69.0,68.0,29.51,SSW,192,2.0,3.0,98,0.00,,,0.00,,2013-03-12 23:02:00,
2013-03-13 01:11:00,69.0,68.0,29.51,SSW,192,2.0,3.0,98,0.00,,,0.00,,2013-03-12 23:11:00,
2013-03-13 01:22:00,69.0,68.0,29.51,West,270,3.0,5.0,98,0.00,,,0.00,,2013-03-12 23:22:00,
2013-03-13 01:34:00,70.0,69.0,29.50,West,265,2.0,5.0,98,0.00,,,0.00,,2013-03-12 23:34:00,
2013-03-13 01:42:00,70.0,69.0,29.50,West,265,2.0,5.0,98,0.00,,,0.00,,2013-03-12 23:42:00,
2013-03-13 01:52:00,70.0,69.0,29.50,West,269,1.0,3.0,98,0.00,,,0.00,,2013-03-12 23:52:00,
2013-03-13 02:02:00,70.0,69.0,29.50,SW,232,1.0,3.0,98,0.00,,,0.00,,2013-03-13 00:02:00,
2013-03-13 02:11:00,70.0,69.0,29.50,SW,232,1.0,3.0,98,0.00,,,0.00,,2013-03-13 00:11:00,
2013-03-13 02:22:00,70.0,69.0,29.50,SW,218,1.0,3.0,98,0.00,,,0.00,,2013-03-13 00:22:00,
2013-03-13 02:32:00,70.0,69.0,29.50,SSW,213,2.0,3.0,98,0.00,,,0.00,,2013-03-13 00:32:00,
2013-03-13 02:41:00,70.0,69.0,29.50,SSW,213,2.0,3.0,98,0.00,,,0.00,,2013-03-13 00:41:00,
2013-03-13 02:52:00,70.0,69.0,29.49,SSW,193,2.0,3.0,98,0.00,,,0.00,,2013-03-13 00:52:00,
2013-03-13 03:02:00,70.0,69.0,29.48,SW,225,2.0,3.0,98,0.00,,,0.00,,2013-03-13 01:02:00,
2013-03-13 03:12:00,70.0,69.0,29.48,SW,225,2.0,3.0,98,0.00,,,0.00,,2013-03-13 01:12:00,
2013-03-13 03:21:00,70.0,69.0,29.49,SSW,209,0.0,1.0,98,0.00,,,0.00,,2013-03-13 01:21:00,
2013-03-13 03:32:00,69.0,68.0,29.49,North,0,1.0,2.0,98,0.00,,,0.00,,2013-03-13 01:32:00,
2013-03-13 03:42:00,69.0,68.0,29.49,North,0,1.0,2.0,98,0.00,,,0.00,,2013-03-13 01:42:00,
2013-03-13 03:52:00,69.0,68.0,29.49,North,0,1.0,2.0,98,0.00,,,0.00,,2013-03-13 01:52:00,
2013-03-13 04:02:00,69.0,68.0,29.48,North,0,0.0,0.0,98,0.00,,,0.00,,2013-03-13 02:02:00,
2013-03-13 04:11:00,69.0,68.0,29.48,North,0,0.0,0.0,98,0.00,,,0.00,,2013-03-13 02:11:00,
2013-03-13 04:22:00,69.0,68.0,29.48,WSW,248,0.0,2.0,98,0.00,,,0.00,,2013-03-13 02:22:00,
2013-03-13 04:32:00,69.0,68.0,29.48,WNW,296,0.0,2.0,98,0.00,,,0.00,,2013-03-13 02:32:00,
2013-03-13 04:42:00,69.0,68.0,29.48,WNW,296,0.0,2.0,98,0.00,,,0.00,,2013-03-13 02:42:00,
2013-03-13 04:52:00,68.0,67.0,29.48,SSW,194,0.0,2.0,98,0.00,,,0.00,,2013-03-13 02:52:00,
2013-03-13 05:01:00,68.0,67.0,29.47,SSW,202,1.0,2.0,98,0.00,,,0.00,,2013-03-13 03:01:00,
2013-03-13 05:11:00,68.0,67.0,29.47,SSW,202,1.0,2.0,98,0.00,,,0.00,,2013-03-13 03:11:00,
2013-03-13 05:21:00,69.0,68.0,29.47,WSW,245,0.0,2.0,98,0.00,,,0.00,,2013-03-13 03:21:00,
2013-03-13 05:32:00,68.0,67.0,29.48,South,186,0.0,0.0,98,0.00,,,0.00,,2013-03-13 03:32:00,
2013-03-13 05:41:00,68.0,67.0,29.48,South,186,0.0,0.0,98,0.00,,,0.00,,2013-03-13 03:41:00,
2013-03-13 05:51:00,67.0,66.0,29.48,South,180,0.0,2.0,98,0.00,,,0.00,,2013-03-13 03:51:00,
2013-03-13 06:02:00,68.0,67.0,29.48,SW,223,1.0,1.0,98,0.00,,,0.00,,2013-03-13 04:02:00,
2013-03-13 06:12:00,68.0,67.0,29.48,SW,223,1.0,1.0,98,0.00,,,0.00,,2013-03-13 04:12:00,
2013-03-13 06:22:00,68.0,67.0,29.48,SW,225,0.0,2.0,98,0.00,,,0.00,,2013-03-13 04:22:00,
2013-03-13 06:31:00,68.0,67.0,29.48,South,169,2.0,2.0,98,0.00,,,0.00,,2013-03-13 04:31:00,
2013-03-13 06:42:00,68.0,67.0,29.48,South,169,2.0,2.0,98,0.00,,,0.00,,2013-03-13 04:42:00,
2013-03-13 06:52:00,69.0,68.0,29.49,SSW,198,3.0,3.0,98,0.00,,,0.00,,2013-03-13 04:52:00,
2013-03-13 07:02:00,70.0,69.0,29.49,SSE,158,2.0,3.0,98,0.00,,,0.00,,2013-03-13 05:02:00,
2013-03-13 07:11:00,70.0,69.0,29.49,SSE,158,2.0,3.0,98,0.00,,,0.00,,2013-03-13 05:11:00,
2013-03-13 07:22:00,70.0,69.0,29.50,South,180,2.0,3.0,98,0.00,,,0.00,,2013-03-13 05:22:00,
2013-03-13 07:32:00,71.0,70.0,29.50,South,188,3.0,5.0,98,0.00,,,0.00,,2013-03-13 05:32:00,
2013-03-13 07:42:00,71.0,70.0,29.50,South,188,3.0,5.0,98,0.00,,,0.00,,2013-03-13 05:42:00,
2013-03-13 07:51:00,71.0,70.0,29.50,South,180,5.0,6.0,98,0.00,,,0.00,,2013-03-13 05:51:00,
2013-03-13 08:02:00,71.0,70.0,29.51,South,180,6.0,8.0,98,0.00,,,0.00,,2013-03-13 06:02:00,
2013-03-13 08:11:00,71.0,70.0,29.51,South,180,6.0,8.0,98,0.00,,,0.00,,2013-03-13 06:11:00,
2013-03-13 08:22:00,71.0,70.0,29.52,South,180,5.0,7.0,98,0.00,,,0.00,,2013-03-13 06:22:00,
2013-03-13 08:32:00,71.0,70.0,29.52,SSE,163,6.0,8.0,98,0.00,,,0.00,,2013-03-13 06:32:00,
2013-03-13 08:41:00,71.0,70.0,29.52,SSE,163,6.0,8.0,98,0.00,,,0.00,,2013-03-13 06:41:00,
2013-03-13 08:52:00,71.0,70.0,29.52,SE,140,5.0,8.0,98,0.00,,,0.00,,2013-03-13 06:52:00,
2013-03-13 09:02:00,71.0,70.0,29.53,SE,126,6.0,8.0,98,0.00,,,0.00,,2013-03-13 07:02:00,
2013-03-13 09:11:00,71.0,70.0,29.53,SE,126,6.0,8.0,98,0.00,,,0.00,,2013-03-13 07:11:00,
2013-03-13 09:22:00,71.0,70.0,29.53,ESE,123,7.0,8.0,98,0.00,,,0.00,,2013-03-13 07:22:00,
2013-03-13 09:32:00,72.0,71.0,29.53,SE,140,6.0,8.0,98,0.00,,,0.00,,2013-03-13 07:32:00,
2013-03-13 09:41:00,72.0,71.0,29.53,SE,140,6.0,8.0,98,0.00,,,0.00,,2013-03-13 07:41:00,
2013-03-13 09:52:00,74.0,73.0,29.53,ESE,103,5.0,9.0,98,0.00,,,0.00,,2013-03-13 07:52:00,
2013-03-13 10:02:00,75.0,74.0,29.53,ESE,112,6.0,9.0,98,0.00,,,0.00,,2013-03-13 08:02:00,
2013-03-13 10:11:00,75.0,74.0,29.53,ESE,112,6.0,9.0,98,0.00,,,0.00,,2013-03-13 08:11:00,
2013-03-13 10:22:00,75.0,74.0,29.53,East,93,6.0,10.0,98,0.00,,,0.00,,2013-03-13 08:22:00,
2013-03-13 10:32:00,75.0,74.0,29.54,ESE,112,7.0,10.0,98,0.00,,,0.00,,2013-03-13 08:32:00,
2013-03-13 10:42:00,75.0,74.0,29.54,ESE,112,7.0,10.0,98,0.00,,,0.00,,2013-03-13 08:42:00,
2013-03-13 10:52:00,74.0,73.0,29.54,SE,142,7.0,10.0,98,0.00,,,0.00,,2013-03-13 08:52:00,
2013-03-13 11:02:00,74.0,73.0,29.54,ESE,112,6.0,9.0,98,0.00,,,0.00,,2013-03-13 09:02:00,
2013-03-13 11:11:00,74.0,73.0,29.54,ESE,112,6.0,9.0,98,0.00,,,0.00,,2013-03-13 09:11:00,
2013-03-13 11:22:00,74.0,73.0,29.53,SE,134,6.0,9.0,98,0.00,,,0.00,,2013-03-13 09:22:00,
2013-03-13 11:32:00,74.0,73.0,29.53,ESE,112,9.0,10.0,98,0.00,,,0.00,,2013-03-13 09:32:00,
2013-03-13 11:41:00,74.0,73.0,29.53,ESE,112,9.0,10.0,98,0.00,,,0.00,,2013-03-13 09:41:00,
2013-03-13 11:52:00,74.0,73.0,29.53,SSE,158,9.0,13.0,98,0.00,,,0.00,,2013-03-13 09:52:00,
2013-03-13 12:01:00,74.0,73.0,29.53,ESE,112,8.0,13.0,98,0.00,,,0.00,,2013-03-13 10:01:00,
2013-03-13 12:11:00,74.0,73.0,29.53,ESE,112,8.0,13.0,98,0.00,,,0.00,,2013-03-13 10:11:00,
2013-03-13 12:22:00,75.0,74.0,29.52,SE,126,6.0,12.0,98,0.00,,,0.00,,2013-03-13 10:22:00,
2013-03-13 12:32:00,75.0,74.0,29.52,SE,125,9.0,10.0,98,0.00,,,0.00,,2013-03-13 10:32:00,
2013-03-13 12:42:00,75.0,74.0,29.52,SE,125,9.0,10.0,98,0.00,,,0.00,,2013-03-13 10:42:00,
2013-03-13 12:52:00,75.0,74.0,29.51,ESE,117,10.0,14.0,98,0.00,,,0.00,,2013-03-13 10:52:00,
2013-03-13 13:02:00,74.0,73.0,29.51,SE,133,8.0,13.0,98,0.00,,,0.00,,2013-03-13 11:02:00,
2013-03-13 13:11:00,74.0,73.0,29.51,SE,133,8.0,13.0,98,0.00,,,0.00,,2013-03-13 11:11:00,
2013-03-13 13:22:00,73.0,72.0,29.51,SE,132,10.0,14.0,98,0.00,,,0.00,,2013-03-13 11:22:00,
2013-03-13 13:32:00,73.0,72.0,29.51,ESE,111,10.0,13.0,98,0.00,,,0.00,,2013-03-13 11:32:00,
2013-03-13 13:42:00,73.0,72.0,29.51,ESE,111,10.0,13.0,98,0.00,,,0.00,,2013-03-13 11:42:00,
2013-03-13 13:52:00,74.0,73.0,29.51,SE,135,10.0,13.0,98,0.00,,,0.00,,2013-03-13 11:52:00,
2013-03-13 14:02:00,74.0,73.0,29.49,SE,132,9.0,15.0,98,0.00,,,0.00,,2013-03-13 12:02:00,
2013-03-13 14:11:00,74.0,73.0,29.49,SE,132,9.0,15.0,98,0.00,,,0.00,,2013-03-13 12:11:00,
2013-03-13 14:22:00,74.0,73.0,29.49,ESE,112,8.0,15.0,98,0.00,,,0.00,,2013-03-13 12:22:00,
2013-03-13 14:32:00,74.0,73.0,29.49,East,93,7.0,13.0,98,0.00,,,0.00,,2013-03-13 12:32:00,
2013-03-13 14:41:00,74.0,73.0,29.49,East,93,7.0,13.0,98,0.00,,,0.00,,2013-03-13 12:41:00,
2013-03-13 14:52:00,74.0,73.0,29.49,SE,129,9.0,14.0,98,0.00,,,0.00,,2013-03-13 12:52:00,
2013-03-13 15:02:00,75.0,74.0,29.47,East,90,10.0,15.0,98,0.00,,,0.00,,2013-03-13 13:02:00,
2013-03-13 15:11:00,75.0,74.0,29.47,East,90,10.0,15.0,98,0.00,,,0.00,,2013-03-13 13:11:00,
2013-03-13 15:21:00,76.0,75.0,29.47,SE,137,13.0,17.0,98,0.00,,,0.00,,2013-03-13 13:21:00,
2013-03-13 15:32:00,75.0,74.0,29.47,ESE,120,11.0,15.0,98,0.00,,,0.00,,2013-03-13 13:32:00,
2013-03-13 15:41:00,75.0,74.0,29.47,ESE,120,11.0,15.0,98,0.00,,,0.00,,2013-03-13 13:41:00,
2013-03-13 15:52:00,76.0,75.0,29.46,SE,131,8.0,16.0,98,0.00,,,0.00,,2013-03-13 13:52:00,
2013-03-13 16:02:00,75.0,74.0,29.47,SE,127,9.0,13.0,98,0.00,,,0.00,,2013-03-13 14:02:00,
2013-03-13 16:11:00,75.0,74.0,29.47,SE,127,9.0,13.0,98,0.00,,,0.00,,2013-03-13 14:11:00,
2013-03-13 16:21:00,74.0,73.0,29.47,ESE,112,10.0,15.0,98,0.00,,,0.00,,2013-03-13 14:21:00,
2013-03-13 16:33:00,74.0,73.0,29.47,ESE,112,8.0,15.0,98,0.00,,,0.00,,2013-03-13 14:33:00,
2013-03-13 16:41:00,74.0,73.0,29.47,ESE,112,8.0,15.0,98,0.00,,,0.00,,2013-03-13 14:41:00,
2013-03-13 16:52:00,74.0,73.0,29.47,ESE,112,7.0,14.0,98,0.00,,,0.00,,2013-03-13 14:52:00,
2013-03-13 17:02:00,74.0,73.0,29.47,ESE,114,7.0,16.0,98,0.00,,,0.00,,2013-03-13 15:02:00,
2013-03-13 17:11:00,74.0,73.0,29.47,ESE,114,7.0,16.0,98,0.00,,,0.00,,2013-03-13 15:11:00,
2013-03-13 17:22:00,74.0,73.0,29.47,SSE,157,9.0,14.0,98,0.00,,,0.00,,2013-03-13 15:22:00,
2013-03-13 17:42:00,73.0,72.0,29.47,ESE,104,11.0,16.0,98,0.00,,,0.00,,2013-03-13 15:42:00,
2013-03-13 17:52:00,72.0,71.0,29.47,SE,124,11.0,15.0,98,0.00,,,0.00,,2013-03-13 15:52:00,
2013-03-13 18:02:00,72.0,71.0,29.47,East,90,12.0,16.0,98,0.00,,,0.00,,2013-03-13 16:02:00,
2013-03-13 18:11:00,72.0,71.0,29.47,East,90,12.0,16.0,98,0.00,,,0.00,,2013-03-13 16:11:00,
2013-03-13 18:21:00,72.0,71.0,29.47,East,97,12.0,16.0,98,0.00,,,0.00,,2013-03-13 16:21:00,
2013-03-13 18:32:00,71.0,70.0,29.47,ESE,102,12.0,16.0,98,0.00,,,0.00,,2013-03-13 16:32:00,
2013-03-13 18:41:00,71.0,70.0,29.47,ESE,102,12.0,16.0,98,0.00,,,0.00,,2013-03-13 16:41:00,
2013-03-13 18:52:00,71.0,70.0,29.47,ESE,115,12.0,17.0,98,0.00,,,0.00,,2013-03-13 16:52:00,
2013-03-13 19:02:00,71.0,70.0,29.47,ESE,105,12.0,17.0,98,0.00,,,0.00,,2013-03-13 17:02:00,
2013-03-13 19:11:00,71.0,70.0,29.47,ESE,105,12.0,17.0,98,0.00,,,0.00,,2013-03-13 17:11:00,
2013-03-13 19:22:00,71.0,70.0,29.47,SE,124,13.0,17.0,98,0.00,,,0.00,,2013-03-13 17:22:00,
2013-03-13 19:32:00,70.0,69.0,29.47,ESE,112,8.0,15.0,98,0.00,,,0.00,,2013-03-13 17:32:00,
2013-03-13 19:42:00,70.0,69.0,29.47,ESE,112,8.0,15.0,98,0.00,,,0.00,,2013-03-13 17:42:00,
2013-03-13 19:52:00,70.0,69.0,29.47,SE,125,9.0,17.0,98,0.00,,,0.00,,2013-03-13 17:52:00,
2013-03-13 20:02:00,70.0,69.0,29.48,ESE,112,10.0,14.0,98,0.00,,,0.00,,2013-03-13 18:02:00,
2013-03-13 20:11:00,70.0,69.0,29.48,ESE,112,10.0,14.0,98,0.00,,,0.00,,2013-03-13 18:11:00,
2013-03-13 20:21:00,70.0,69.0,29.48,SE,131,9.0,14.0,98,0.00,,,0.00,,2013-03-13 18:21:00,
2013-03-13 20:32:00,70.0,69.0,29.48,ESE,121,13.0,17.0,98,0.00,,,0.00,,2013-03-13 18:32:00,
2013-03-13 20:42:00,70.0,69.0,29.48,ESE,121,13.0,17.0,98,0.00,,,0.00,,2013-03-13 18:42:00,
2013-03-13 20:51:00,70.0,69.0,29.48,ESE,102,12.0,17.0,98,0.00,,,0.00,,2013-03-13 18:51:00,
2013-03-13 21:02:00,70.0,69.0,29.48,ESE,112,13.0,18.0,98,0.00,,,0.00,,2013-03-13 19:02:00,
2013-03-13 21:12:00,70.0,69.0,29.48,ESE,112,13.0,18.0,98,0.00,,,0.00,,2013-03-13 19:12:00,
2013-03-13 21:22:00,70.0,69.0,29.49,ESE,112,12.0,16.0,98,0.00,,,0.00,,2013-03-13 19:22:00,
2013-03-13 21:32:00,70.0,69.0,29.49,ESE,121,11.0,16.0,98,0.00,,,0.00,,2013-03-13 19:32:00,
2013-03-13 21:42:00,70.0,69.0,29.49,ESE,121,11.0,16.0,98,0.00,,,0.00,,2013-03-13 19:42:00,
2013-03-13 21:52:00,70.0,69.0,29.49,SE,126,8.0,16.0,98,0.00,,,0.00,,2013-03-13 19:52:00,
2013-03-13 22:02:00,70.0,69.0,29.49,ESE,112,14.0,15.0,98,0.00,,,0.00,,2013-03-13 20:02:00,
2013-03-13 22:11:00,70.0,69.0,29.49,ESE,112,14.0,15.0,98,0.00,,,0.00,,2013-03-13 20:11:00,
2013-03-13 22:21:00,70.0,69.0,29.49,SE,130,12.0,18.0,98,0.00,,,0.00,,2013-03-13 20:21:00,
2013-03-13 22:32:00,70.0,69.0,29.49,East,100,9.0,21.0,98,0.00,,,0.00,,2013-03-13 20:32:00,
2013-03-13 22:41:00,70.0,69.0,29.49,East,100,9.0,21.0,98,0.00,,,0.00,,2013-03-13 20:41:00,
2013-03-13 22:52:00,70.0,69.0,29.49,ESE,112,14.0,21.0,98,0.00,,,0.00,,2013-03-13 20:52:00,
2013-03-13 23:02:00,69.0,68.0,29.48,ESE,112,11.0,21.0,98,0.00,,,0.00,,2013-03-13 21:02:00,
2013-03-13 23:11:00,69.0,68.0,29.48,ESE,112,11.0,21.0,98,0.00,,,0.00,,2013-03-13 21:11:00,
2013-03-13 23:21:00,69.0,68.0,29.48,ESE,107,14.0,17.0,98,0.00,,,0.00,,2013-03-13 21:21:00,
2013-03-13 23:32:00,69.0,68.0,29.48,SE,134,13.0,20.0,98,0.00,,,0.00,,2013-03-13 21:32:00,
2013-03-13 23:41:00,69.0,68.0,29.48,SE,134,13.0,20.0,98,0.00,,,0.00,,2013-03-13 21:41:00,
2013-03-13 23:51:00,69.0,68.0,29.47,SE,125,14.0,20.0,98,0.00,,,0.00,,2013-03-13 21:51:00,